Theta_e
341 341 339 338 335 333 331 331 328 325 322 321 320 319 317 315 314 313 313 312 312 311
342 339 336 334 333 332 331 327 325 322 320 320 318 316 314 313 313 313 311 310 311 310
338 337 333 332 331 330 327 324 321 320 320 318 316 315 314 314 313 311 309 309 310 309
335 334 333 331 329 326 324 321 320 319 317 316 315 314 314 313 313 311 310 310 310 307
334 333 331 328 325 324 321 320 319 317 317 317 315 313 314 314 313 312 310 307 304 302
329 329 326 324 324 323 320 318 317 316 315 315 314 314 314 315 313 309 307 304 301 298
328 326 324 323 321 319 318 313 311 311 311 312 314 315 316 312 307 305 302 300 297 296
325 323 322 319 316 312 310 308 308 307 306 308 312 314 312 310 305 302 300 298 295 294
321 320 316 313 309 307 306 305 305 304 305 305 310 306 308 308 304 301 299 295 291 291
317 314 312 310 307 304 302 301 300 300 302 301 305 302 303 304 299 295 292 289 288 290
315 312 309 306 303 301 300 298 297 295 296 298 302 300 299 298 292 290 290 289 288 286
312 309 307 304 302 299 297 296 295 294 296 298 299 300 297 293 290 289 288 289 288 287
311 308 305 303 301 298 297 295 294 293 294 297 294 297 296 293 292 290 290 289 289 295
309 307 305 302 299 297 296 294 293 292 292 292 294 296 296 296 293 290 289 289 289 289
Wind_Speed
11 8 9 12 13 10 9 8 11 10 9 8 8 7 6 5 5 6 7 9 7 4
12 14 10 11 13 10 10 10 12 10 10 8 7 7 7 5 5 7 7 6 6 4
7 14 14 13 14 13 12 14 13 9 9 8 7 7 7 6 6 7 5 4 8 5
18 18 18 16 17 15 14 13 12 9 9 9 8 6 7 7 7 8 7 6 8 8
24 22 19 17 17 19 18 13 11 9 8 8 7 6 7 7 6 9 9 8 10 8
23 16 20 18 16 16 17 12 10 8 7 7 7 7 7 10 11 10 10 10 10 7
19 19 17 17 19 16 14 11 12 9 8 9 7 9 12 13 12 12 11 10 8 6
21 20 18 19 16 17 14 12 12 12 10 8 9 8 12 13 12 12 10 7 7 7
25 21 19 18 20 19 14 13 12 11 9 9 7 15 15 14 11 10 9 7 6 6
24 23 21 19 20 15 14 13 13 9 10 9 9 16 18 18 11 10 8 7 6 6
24 24 21 21 17 15 13 12 10 8 7 9 8 21 21 19 11 10 7 7 7 6
22 24 21 19 16 14 13 12 9 7 8 10 9 20 18 16 10 8 6 5 5 6
21 21 20 18 17 12 12 12 9 12 11 14 11 14 17 12 7 7 4 5 5 9
20 20 19 19 14 13 13 12 13 13 11 12 11 13 14 11 7 4 4 5 4 5
Wind_Direction
151 147 144 142 130 121 128 128 123 114 119 111 103 105 105 101 101 89 77 75 68 71
161 144 132 125 117 126 131 129 117 117 115 110 118 113 106 106 99 88 80 81 79 66
174 148 125 128 127 134 134 121 117 121 119 125 115 108 111 108 96 91 79 81 75 57
147 145 150 139 139 137 122 122 123 135 128 123 117 122 113 101 100 97 89 68 79 66
145 171 145 140 141 132 129 125 131 122 123 126 124 122 113 110 110 100 90 81 73 54
135 151 128 130 130 130 119 127 117 102 107 114 112 112 102 106 97 90 89 81 73 59
133 128 126 130 127 122 120 106 97 97 98 89 93 112 113 110 104 97 86 81 73 57
126 123 129 126 115 101 99 102 106 101 81 82 100 111 112 111 106 106 98 83 71 54
121 130 120 109 103 99 104 102 102 90 98 97 107 110 106 104 107 98 93 81 64 59
124 116 108 104 95 104 104 102 93 95 106 105 116 101 94 96 96 95 92 89 71 61
117 111 106 98 103 105 100 102 103 102 99 101 106 101 100 99 93 86 78 83 82 74
114 106 107 108 114 103 109 101 99 97 92 93 98 111 110 102 92 87 79 87 76 61
109 109 111 116 106 113 108 106 104 91 84 94 85 106 111 110 103 92 91 64 45 28
104 110 111 106 120 117 111 111 100 94 82 72 78 91 103 93 95 120 90 62 20 15